EW1979 Weather Reports


time (UTC)temp
F
wind
direction
speed
knots
gust
knots
rain 1hr
in
rain 24hr
in
rain mn
in
humidity
%
barometer
mb
20260904041557 80 163 5.2 0.0 0.00 0.00 0.00 66 1008.2
20260904040054 81 159 5.2 0.0 0.00 0.00 0.00 65 1008.2
20260904034554 81 175 4.3 0.0 0.00 0.00 0.00 65 1008.6
20260904033104 81 146 3.5 0.0 0.00 0.00 0.00 64 1008.6
20260904031553 81 105 2.6 0.0 0.00 0.00 0.00 64 1008.3
20260904030052 82 113 3.5 0.0 0.00 0.00 0.00 63 1008.2
20260904024602 82 87 3.5 0.0 0.00 0.00 0.00 62 1008.2
20260904023100 82 157 3.5 0.0 0.00 0.00 0.00 61 1007.9
20260904021550 83 108 2.6 0.0 0.00 0.00 0.00 62 1007.7
20260904020051 83 96 2.6 0.0 0.00 0.00 0.00 62 1007.2
20260904014603 84 92 3.5 0.0 0.00 0.00 0.00 60 1007.2
20260904013050 85 128 2.6 0.0 0.00 0.00 0.00 58 1006.9
20260904011550 87 146 2.6 0.0 0.00 0.00 0.00 55 1006.7
20260904010050 88 115 2.6 0.0 0.00 0.00 0.00 52 1006.5
20260904004549 89 124 3.5 0.0 0.00 0.00 0.00 50 1006.6
20260904003050 90 134 1.7 0.0 0.00 0.00 0.00 49 1006.1
20260904001554 92 118 2.6 0.0 0.00 0.00 0.00 46 1005.8
20260904000110 92 132 2.6 0.0 0.00 0.00 0.00 44 1005.8
20260903234547 93 116 1.7 0.0 0.00 0.00 0.00 43 1005.9
20260903233109 94 91 1.7 0.0 0.00 0.00 0.00 44 1005.9
20260903231548 94 91 1.7 0.0 0.00 0.00 0.00 42 1005.9
20260903230105 95 115 3.5 0.0 0.00 0.00 0.00 41 1005.5
20260903224559 96 102 4.3 0.0 0.00 0.00 0.00 41 1005.5
20260903223111 96 174 2.6 0.0 0.00 0.00 0.00 41 1005.3
20260903221544 95 120 3.5 0.0 0.00 0.00 0.00 42 1005.6
20260903220042 92 133 0.9 0.0 0.00 0.00 0.00 45 1005.8
20260903214548 93 174 2.6 0.0 0.00 0.00 0.00 45 1005.8
20260903213053 93 72 1.7 0.0 0.00 0.00 0.00 43 1005.9
20260903211543 96 102 2.6 0.0 0.00 0.00 0.00 39 1005.9
20260903210059 98 135 2.6 0.0 0.00 0.00 0.00 40 1005.8
20260903204541 96 144 2.6 0.0 0.00 0.00 0.00 43 1006.2
20260903203037 96 165 2.6 0.0 0.00 0.00 0.00 42 1006.3
20260903201535 97 73 3.5 0.0 0.00 0.00 0.00 39 1006.3
20260903200034 97 244 3.5 0.0 0.00 0.00 0.00 39 1006.4
20260903194541 96 219 3.5 0.0 0.00 0.00 0.00 39 1006.6
20260903193031 96 213 4.3 0.0 0.00 0.00 0.00 40 1007.1
20260903191529 96 208 3.5 0.0 0.00 0.00 0.00 40 1007.1
20260903190028 95 196 6.1 0.0 0.00 0.00 0.00 41 1007.7
20260903184524 94 221 6.1 0.0 0.00 0.00 0.00 41 1007.9
20260903183021 94 132 6.1 0.0 0.00 0.00 0.00 42 1008.1
20260903181519 93 240 6.1 0.0 0.00 0.00 0.00 43 1008.3
20260903180018 92 214 4.3 0.0 0.00 0.00 0.00 45 1008.7
20260903174515 91 186 4.3 0.0 0.00 0.00 0.00 47 1008.7
20260903173013 90 215 5.2 0.0 0.00 0.00 0.00 52 1009.0
20260903171510 90 161 5.2 0.0 0.00 0.00 0.00 51 1009.3
20260903170012 89 229 7.0 0.0 0.00 0.00 0.00 52 1009.4
20260903164506 88 204 5.2 0.0 0.00 0.00 0.00 56 1009.4
20260903163006 86 202 6.1 0.0 0.00 0.00 0.00 61 1009.5
20260903161601 86 200 5.2 0.0 0.00 0.00 0.00 64 1009.5
20260903160057 83 171 4.3 0.0 0.00 0.00 0.00 68 1009.6
20260903154559 82 192 5.2 0.0 0.00 0.00 0.00 70 1009.5
20260903153054 82 170 7.0 0.0 0.00 0.00 0.00 72 1009.4
20260903151554 81 194 8.7 0.0 0.00 0.00 0.00 74 1009.4
20260903144553 81 195 6.1 0.0 0.00 0.00 0.00 77 1009.4
20260903143056 80 156 7.0 0.0 0.00 0.00 0.00 79 1009.6
20260903141558 79 195 7.0 0.0 0.00 0.00 0.00 82 1009.6
20260903140050 78 178 7.0 0.0 0.00 0.00 0.00 84 1009.8
20260903134550 77 183 6.1 0.0 0.00 0.00 0.00 85 1009.9
20260903133050 76 188 5.2 0.0 0.00 0.00 0.00 87 1010.1
20260903131604 76 167 5.2 0.0 0.00 0.00 0.00 88 1009.9
20260903130053 75 187 5.2 0.0 0.00 0.00 0.00 89 1009.9
20260903124546 75 201 6.1 0.0 0.00 0.00 0.00 89 1009.5
20260903123045 75 220 5.2 0.0 0.00 0.00 0.00 89 1009.3
20260903121555 75 213 5.2 0.0 0.00 0.00 0.00 89 1009.2
20260903120042 75 195 6.1 0.0 0.00 0.00 0.00 89 1009.1
20260903114543 75 182 6.1 0.0 0.00 0.00 0.00 88 1008.8
20260903113044 75 186 7.0 0.0 0.00 0.00 0.00 88 1008.8
20260903111545 75 193 7.0 0.0 0.00 0.00 0.00 87 1008.9
20260903110037 75 193 6.1 0.0 0.00 0.00 0.00 87 1008.9
20260903104548 75 168 6.1 0.0 0.00 0.00 0.00 87 1008.7
20260903103032 75 194 6.1 0.0 0.00 0.00 0.00 87 1008.6
20260903101529 75 184 6.1 0.0 0.00 0.00 0.00 87 1008.7
20260903100037 75 213 4.3 0.0 0.00 0.00 0.00 87 1008.7
20260903094527 75 204 5.2 0.0 0.00 0.00 0.00 87 1008.8
20260903093030 75 171 4.3 0.0 0.00 0.00 0.00 87 1009.0
20260903091524 75 182 3.5 0.0 0.00 0.00 0.00 86 1009.1
20260903090022 75 187 4.3 0.0 0.00 0.00 0.00 86 1008.9
20260903084520 76 178 3.5 0.0 0.00 0.00 0.00 83 1009.1
20260903083018 76 166 1.7 0.0 0.00 0.00 0.00 81 1008.9
20260903081520 77 186 3.5 0.0 0.00 0.00 0.00 80 1009.0
20260903080015 77 188 5.2 0.0 0.00 0.00 0.00 79 1008.9
20260903074512 77 213 6.1 0.0 0.00 0.00 0.00 78 1008.4
20260903073019 78 163 4.3 0.0 0.00 0.00 0.00 76 1008.5
20260903071509 78 185 5.2 0.0 0.00 0.00 0.00 76 1008.6
20260903070007 78 169 5.2 0.0 0.00 0.00 0.00 77 1008.9
20260903064503 79 161 4.3 0.0 0.00 0.00 0.00 75 1009.1
20260903063100 79 162 5.2 0.0 0.00 0.00 0.00 73 1008.9
20260903061601 80 152 4.3 0.0 0.00 0.00 0.00 71 1008.7
20260903060117 80 163 4.3 0.0 0.00 0.00 0.00 70 1008.7
20260903054552 81 159 7.8 0.0 0.00 0.00 0.00 68 1008.7
20260903053051 81 169 6.1 0.0 0.00 0.00 0.00 64 1008.9
20260903051547 82 196 6.1 0.0 0.00 0.00 0.00 64 1008.8
20260903050046 82 163 7.0 0.0 0.00 0.00 0.00 65 1008.4
20260903044544 83 168 7.8 0.0 0.00 0.00 0.00 64 1008.6
20260903043044 83 166 6.1 0.0 0.00 0.00 0.00 62 1008.6